EHI
0 0 0 0 0 0 0 0 0 0 0 0 0 0 0 0 0 0 0 0 0 0 0 0 0 0 0 0 0 0 0 0 0 0 0 0 0 0 0 0 0 0 0
0 0 0 0 0 0 0 0 0 0 0 0 0 0 0 0 0 0 0 0 0 0 0 0 0 0 0 0 0 0 0 0 0 0 0 0 0 0 0 0 0 0 0
0 0 0 0 0 0 0 0 0 0 0 0 0 0 0 0 0 0 0 0 0 0 0 0 0 0 0 0 0 0 0 0 0 0 0 0 0 0 0 0 0 0 0
0 0 0 0 0 0 0 0 0 0 0 0 0 0 0 0 0 0 0 0 0 0 0 0 0 0 0 0 0 0 0 0 0 0 0 0 0 0 0 0 0 0 0
0 0 0 0 0 0 0 0 0 0 0 0 0 0 0 0 0 0 0 0 0 0 0 0 0 0 0 0 0 0 0 0 0 0 0 0 0 0 0 0 0 0 0
0 0 0 0 0 0 0 0 0 0 0 0 0 0 0 0 0 0 0 0 0 0 0 0 0 0 0 0 0 0 0 0 0 0 0 0 0 0 0 0 0 0 0
0 0 0 0 0 0 0 0 0 0 0 0 0 0 0 0 0 0 0 0 0 0 0 0 0 0 0 0 0 0 0 0 0 0 0 0 0 0 0 0 0 0 0
0 0 0 0 0 0 0 0 0 0 0 0 0 0 0 0 0 0 0 0 0 0 0 0 0 0 0 0 0 0 0 0 0 0 0 0 0 0 0 0 0 0 0
0 0 0 0 0 0 0 0 0 0 0 0 0 0 0 0 0 0 0 0 0 0 0 0 0 0 0 0 0 0 0 0 0 0 0 0 0 0 0 0 0 0 0
0 0 0 0 0 0 0 0 0 0 0 0 0 0 0 0 0 0 0 0 0 0 0 0 0 0 0 0 0 0 0 0 0 0 0 0 0 0 0 0 0 0 0
0 0 0 0 0 0 0 0 0 0 0 0 0 0 0 0 0 0 0 0 0 0 0 0 0 0 0 0 0 0 0 0 0 0 0 0 0 0 0 0 0 0 0
0 0 0 0 0 0 0 0 0 0 0 0 0 0 0 0 0 0 0 0 0 0 0 0 0 0 0 0 0 0 0 0 0 0 0 0 0 0 0 0 0 0 0
0 0 0 0 0 0 0 0 0 0 0 0 0 0 0 0 0 0 0 0 0 0 0 0 0 0 0 0 0 0 0 0 0 0 0 0 0 0 0 0 0 0 0
0 0 0 0 0 0 0 0 0 0 0 0 0 0 0 0 0 0 0 0 0 0 0 0 0 0 0 0 0 0 0 0 0 0 0 0 0 0 0 0 0 0 0
0 0 0 0 0 0 0 0 0 0 0 0 0 0 0 0 0 0 0 0 0 0 0 0 0 0 0 0 0 0 0 0 0 0 0 0 0 0 0 0 0 0 0
0 0 0 0 0 0 0 0 0 0 0 0 0 0 0 0 0 0 0 0 0 0 0 0 0 0 0 0 0 0 0 0 0 0 0 0 0 0 0 0 0 0 0
0 0 0 0 0 0 0 0 0 0 0 0 0 0 0 0 0 0 0 0 0 0 0 0 0 0 0 0 0 0 0 0 0 0 0 0 0 0 0 0 0 0 0
0 0 0 0 0 0 0 0 0 0 0 0 0 0 0 0 0 0 0 0 0 0 0 0 0 0 0 0 0 0 0 0 0 0 0 0 0 0 0 0 0 0 0
0 0 0 0 0 0 0 0 0 0 0 0 0 0 0 0 0 0 0 0 0 0 0 0 0 0 0 0 0 0 0 0 0 0 0 0 0 0 0 0 0 0 0
0 0 0 0 0 0 0 0 0 0 0 0 0 0 0 0 0 0 0 0 0 0 0 0 0 0 0 0 0 0 0 0 0 0 0 0 0 0 0 0 0 0 0
0 0 0 0 0 0 0 0 0 0 0 0 0 0 0 0 0 0 0 0 0 0 0 0 0 0 0 0 0 0 0 0 0 0 0 0 0 0 0 0 0 0 0
0 0 0 0 0 0 0 0 0 0 0 0 0 0 0 0 0 0 0 0 0 0 0 0 0 0 0 0 0 0 0 0 0 0 0 0 0 0 0 0 0 0 0
0 0 0 0 0 0 0 0 0 0 0 0 0 0 0 0 0 0 0 0 0 0 0 0 0 0 0 0 0 0 0 0 0 0 0 0 0 0 0 0 0 0 0
0 0 0 0 0 0 0 0 0 0 0 0 0 0 0 0 0 0 0 0 0 0 0 0 0 0 0 0 0 0 0 0 0 0 0 0 0 0 0 0 0 0 0
0 0 0 0 0 0 0 0 0 0 0 0 0 0 0 0 0 0 0 0 0 0 0 0 0 0 0 0 0 0 0 0 0 0 0 0 0 0 0 0 0 0 0
0 0 0 0 0 0 0 0 0 0 0 0 0 0 0 0 0 0 0 0 0 0 0 0 0 0 0 0 0 0 0 0 0 0 0 0 0 0 0 0 0 0 0
Wind_Speed
1 1 0 0 1 1 1 1 1 1 1 2 2 1 1 1 0 0 0 0 0 1 1 1 1 1 1 1 1 1 1 1 2 3 2 1 2 1 1 1 1 1 2
1 1 1 0 1 1 1 1 1 1 1 2 1 1 1 1 1 1 1 1 1 1 1 1 2 1 1 1 1 1 1 1 2 3 2 2 2 2 1 2 2 2 1
0 1 0 0 1 1 1 1 1 1 1 1 1 2 2 1 1 1 1 2 2 2 2 2 2 1 2 1 1 1 1 2 1 2 2 2 1 2 1 2 2 2 2
0 1 1 1 1 1 1 1 1 1 1 1 1 2 2 2 2 1 1 1 1 1 1 2 2 2 2 2 2 2 1 1 1 2 2 2 2 2 1 1 2 2 2
1 1 1 1 1 1 1 1 0 1 1 1 1 1 1 1 2 1 2 2 2 2 2 2 3 3 4 3 3 2 2 2 2 2 3 2 2 2 2 1 2 2 3
1 1 1 1 1 1 1 1 1 1 1 1 1 2 2 2 3 3 3 2 2 2 3 2 2 3 4 5 6 5 4 3 3 3 3 3 3 3 2 2 2 2 3
1 1 1 1 1 1 1 1 1 1 1 1 2 2 2 2 4 4 4 2 2 3 2 2 2 3 3 2 3 4 5 6 6 4 4 5 4 3 2 3 2 3 4
2 1 1 1 1 1 1 1 1 1 2 2 2 2 2 3 4 4 5 3 2 3 3 3 3 3 3 2 2 2 3 3 4 4 4 4 3 3 3 4 3 3 3
2 2 1 1 1 1 2 2 2 2 2 2 2 2 2 3 5 5 4 1 2 2 3 3 3 3 5 5 3 3 3 3 4 5 5 5 5 6 4 2 2 3 4
2 2 1 1 2 2 2 2 2 2 2 2 2 2 2 3 4 5 4 2 2 2 2 3 4 5 6 6 3 3 3 3 3 3 3 4 3 4 5 3 3 3 3
2 2 1 2 2 2 2 2 1 2 1 2 2 2 2 3 4 5 5 2 2 2 2 2 3 6 6 6 5 3 5 4 2 2 2 2 2 2 2 2 2 3 3
1 2 2 2 2 2 1 2 2 1 2 2 2 2 2 2 3 4 5 5 4 3 3 2 3 5 6 7 5 5 6 4 2 2 2 2 2 2 2 2 3 3 3
2 2 2 2 2 2 2 2 2 1 1 2 2 2 2 1 2 4 5 5 5 3 2 4 5 6 5 4 4 5 4 2 2 3 3 3 2 2 2 2 2 2 3
2 2 2 2 2 1 1 2 1 1 2 2 2 2 2 1 1 2 2 2 3 3 2 3 5 5 4 4 3 3 2 2 2 3 2 2 2 2 2 2 3 2 2
2 2 2 2 1 1 1 1 2 2 3 3 2 2 2 2 3 5 3 2 2 2 2 1 1 1 1 1 1 1 1 1 2 2 2 2 3 3 3 2 2 2 3
2 2 2 2 1 1 1 1 3 3 5 6 5 5 3 5 6 6 6 6 5 5 3 2 2 2 2 1 1 1 2 2 2 2 2 3 3 3 3 2 2 3 3
3 3 2 2 2 1 1 1 2 3 4 5 5 5 5 5 5 6 5 5 5 4 2 1 2 2 2 1 1 2 2 2 2 2 3 3 3 3 3 3 3 3 3
2 4 3 2 2 2 2 2 2 2 2 2 3 5 5 5 5 5 5 3 2 1 1 1 1 1 1 1 2 2 2 1 2 2 2 2 2 3 3 3 3 3 4
3 2 2 2 2 2 2 2 2 2 2 2 2 3 4 5 5 4 3 1 1 1 1 1 2 2 1 1 1 2 2 2 2 2 2 2 2 3 3 3 4 6 5
2 4 4 3 2 2 2 2 2 2 2 2 2 2 2 3 2 1 1 1 1 1 1 1 1 1 1 2 2 2 2 2 2 2 2 3 3 3 3 4 4 4 4
2 3 5 3 2 2 2 2 2 2 2 3 3 3 5 2 2 2 1 1 1 1 1 1 1 1 1 1 2 2 2 2 2 2 3 3 3 3 3 3 4 4 4
2 2 2 2 2 2 2 2 2 2 3 3 3 3 5 3 2 2 2 2 1 1 1 2 2 2 2 2 2 2 3 3 3 2 3 3 3 3 3 3 3 3 3
2 2 2 2 2 3 3 2 2 2 2 3 3 3 3 2 2 2 2 2 2 2 1 2 2 2 2 2 2 3 3 4 3 3 3 3 4 4 3 4 4 5 5
1 2 2 2 2 2 2 2 2 3 3 3 3 3 3 2 3 3 3 2 2 2 2 2 2 3 4 4 3 3 3 4 4 4 5 5 4 4 4 4 5 5 5
1 2 2 2 2 2 2 2 2 3 3 3 3 3 3 3 3 3 3 3 3 3 3 3 3 3 5 6 5 5 8 10 8 5 4 4 5 5 5 5 5 5 5
1 1 1 1 2 2 2 2 3 3 3 3 3 3 3 3 3 3 3 3 3 3 3 3 4 5 6 5 7 9 11 11 11 10 6 4 5 5 4 4 5 5 5
Wind_Direction
267 254 235 248 269 265 238 229 183 170 172 178 191 194 189 188 219 219 251 193 252 306 292 242 254 235 217 226 222 224 231 211 251 285 302 307 303 288 305 312 305 274 275
256 252 233 238 240 234 250 251 204 194 195 191 195 193 196 193 203 191 230 239 224 236 257 253 261 254 238 240 229 232 232 230 227 264 284 285 297 280 286 299 305 301 291
250 246 238 249 238 236 249 240 228 207 211 210 205 205 206 205 220 225 231 246 239 240 236 242 252 239 251 254 247 245 255 268 249 242 268 284 297 294 297 299 292 301 297
245 242 239 251 249 257 273 262 228 215 216 223 227 224 219 213 224 235 249 257 253 251 248 241 239 232 230 236 241 239 242 251 249 242 257 276 288 290 254 253 291 298 299
249 245 253 264 259 242 249 263 247 220 239 230 231 233 236 223 218 229 246 246 242 240 240 239 236 234 245 245 245 226 218 228 231 238 243 256 255 265 258 236 258 286 288
258 257 265 252 241 230 228 227 226 225 231 230 233 232 244 258 259 261 268 256 250 243 242 244 243 244 243 252 254 249 233 223 225 233 244 242 250 253 268 259 247 268 277
263 266 267 252 239 239 239 219 226 230 228 235 239 236 241 255 261 265 269 273 255 245 236 240 258 253 255 239 259 264 262 252 240 234 235 243 245 244 242 252 249 251 258
273 274 275 276 265 261 248 233 238 239 231 238 245 243 250 263 267 271 273 272 260 250 238 230 234 242 250 245 244 255 263 258 252 245 231 240 248 241 234 241 244 261 274
270 268 275 274 266 256 249 245 257 253 251 250 251 241 242 258 263 267 270 262 262 268 259 246 238 231 242 252 243 242 257 264 271 256 255 259 264 268 265 254 251 261 273
275 280 281 275 259 247 250 258 261 257 257 262 268 253 243 249 259 264 264 236 242 255 259 254 251 248 246 250 236 223 244 251 247 256 257 264 263 259 266 247 235 249 266
301 303 296 281 265 254 252 259 248 261 257 255 262 266 248 246 256 262 265 249 235 244 248 243 245 252 257 260 258 239 245 255 241 238 242 242 243 241 243 239 231 234 241
306 298 290 286 276 271 247 257 249 234 237 245 251 267 266 259 263 259 266 266 257 242 247 245 244 257 265 268 269 258 257 264 234 235 244 241 233 234 237 238 239 240 239
307 294 288 286 282 274 255 249 243 225 229 245 244 255 266 267 262 274 278 275 269 259 243 248 255 262 272 273 268 267 268 245 226 238 247 250 241 233 232 245 255 254 261
285 286 281 273 267 261 265 258 247 231 236 245 252 257 268 276 271 269 264 274 275 274 261 251 262 268 277 274 267 272 260 237 234 239 245 254 247 237 239 243 250 251 258
286 285 281 279 270 263 273 262 265 243 247 253 242 240 239 244 257 276 279 259 232 233 245 229 214 225 239 241 259 270 256 254 261 251 245 248 253 253 250 244 248 247 247
285 290 284 281 272 260 255 303 305 295 294 290 284 277 273 269 273 278 288 293 287 267 262 226 219 218 229 239 246 256 255 252 251 250 251 251 252 255 256 249 245 245 254
272 283 280 278 273 271 273 272 296 319 311 304 296 293 291 285 284 288 293 296 288 281 260 227 225 226 227 229 242 254 262 263 255 251 254 254 252 254 255 250 245 247 254
286 287 290 279 273 270 268 268 270 277 291 300 301 298 300 298 298 299 304 314 298 302 243 228 231 231 230 236 242 248 256 265 270 267 264 262 258 253 251 249 247 244 252
294 283 281 278 277 279 280 277 273 274 278 289 300 300 302 305 307 307 313 292 241 256 262 253 243 238 239 243 252 255 255 256 259 265 270 271 267 262 259 256 252 255 255
293 299 304 293 288 286 285 283 280 278 281 283 284 288 290 291 287 299 306 277 261 260 261 263 263 251 242 239 244 249 257 258 257 261 264 265 266 265 263 260 256 253 254
290 297 308 308 300 292 285 278 277 277 279 283 284 285 294 294 281 277 270 271 270 269 264 260 258 262 263 254 247 247 249 252 254 256 259 264 265 265 264 262 261 258 258
287 291 290 288 290 287 289 290 291 288 288 290 297 299 302 305 293 281 275 274 273 268 263 255 253 246 245 252 252 250 246 246 250 254 258 261 263 263 262 260 262 262 259
283 290 296 302 303 298 305 300 291 286 285 287 291 296 297 293 287 282 279 277 272 268 269 262 260 263 261 259 255 246 242 245 248 244 250 259 262 259 259 260 261 262 259
285 289 294 298 299 290 290 292 290 288 285 285 287 288 287 286 287 286 282 277 272 269 261 258 257 259 264 267 265 259 252 252 249 239 236 244 253 258 258 260 260 259 257
303 298 299 299 304 304 300 295 291 289 288 288 287 285 284 283 282 282 278 273 269 265 265 264 260 258 260 264 265 263 265 268 268 255 235 237 244 250 256 257 260 262 258
320 315 308 304 298 297 295 293 294 295 291 291 287 283 280 279 280 280 278 274 272 271 269 268 264 264 264 263 262 266 269 268 268 267 258 241 240 247 251 253 254 256 256